Home   Weather   Glasgow   Past weeks

Flag for United Kingdom Past Weather in Glasgow, Scotland, United Kingdom — Yesterday and Last 2 Weeks

Now
43 °F

Overcast.


Feels Like: 40 °F
Forecast: 37 / 44 °F
Wind: 5 mph from Southwest

Location: Glasgow Airport

Current Time: Jan 20, 2017 at 1:52:59 am

Latest Report: Jan 20, 2017 at 1:20 am


Visibility: N/A

Pressure: 30.57 "Hg

Humidity: 93%

Dew Point: 41 °F

Location of GlasgowLocation

Past Weather in Glasgow — Graph

°F

Glasgow Temperature Yesterday

Maximum temperature yesterday: 46 °F (at 9:20 am)
Minimum temperature yesterday: 43 °F (at 6:20 am)
Average temperature yesterday: 45 °F

High & Low Weather Summary for the Past Weeks

 TemperatureHumidityPressure
High52 °F (Jan 8, 9:20 pm)100% (Jan 5, 3:20 am)30.60 "Hg (Jan 5, 3:20 am)
Low18 °F (Jan 5, 8:50 am)60% (Jan 13, 2:50 pm)29.39 "Hg (Jan 12, 3:20 pm)
Average43 °F89%30.12 "Hg
* Reported Jan 5 12:20 am — Jan 20 12:50 am, Glasgow, Weather by CustomWeather, © 2017

Note: Actual official high and low records may vary slightly from our data, if they occured in-between our weather recording intervals... More about our weather records

Advertising

Glasgow Weather History for the Previous 24 Hours

Scroll right to see more
 ConditionsComfort  
Time TempWeatherWind HumidityBarometerVisibility
12:50 am
Fri, Jan 20
43 °FOvercast.5 mph87%30.57 "HgN/A
11:50 pm
Thu, Jan 19
45 °FOvercast.6 mph81%30.60 "HgN/A
11:20 pm43 °FOvercast.6 mph93%30.60 "HgN/A
10:50 pm45 °FOvercast.6 mph87%30.60 "HgN/A
10:20 pm45 °FOvercast.5 mph81%30.60 "HgN/A
9:50 pm45 °FOvercast.6 mph87%30.60 "HgN/A
9:20 pm45 °FOvercast.5 mph87%30.60 "HgN/A
8:50 pm45 °FOvercast.3 mph87%30.60 "HgN/A
8:20 pm45 °FOvercast.5 mph87%30.60 "HgN/A
7:50 pm45 °FOvercast.5 mph87%30.60 "HgN/A
7:20 pm45 °FOvercast.5 mph87%30.60 "HgN/A
6:50 pm45 °FOvercast.6 mph87%30.60 "HgN/A
6:20 pm45 °FOvercast.7 mph87%30.60 "HgN/A
5:50 pm45 °FOvercast.7 mph87%30.60 "HgN/A
5:20 pm45 °FOvercast.9 mph87%30.60 "HgN/A
4:50 pm45 °FOvercast.8 mph87%30.57 "HgN/A
4:20 pm45 °FOvercast.8 mph87%30.57 "HgN/A
3:50 pm45 °FOvercast.7 mph87%30.57 "HgN/A
3:20 pm45 °FOvercast.8 mph87%30.57 "HgN/A
2:50 pm46 °FPartly sunny.7 mph87%30.60 "HgN/A
2:20 pm46 °FOvercast.7 mph87%30.60 "HgN/A
1:50 pm46 °FOvercast.8 mph87%30.60 "HgN/A
1:20 pm46 °FOvercast.8 mph82%30.60 "HgN/A
12:50 pm46 °FOvercast.9 mph82%30.60 "HgN/A
12:20 pm46 °FOvercast.9 mph82%30.60 "HgN/A
11:50 am46 °FOvercast.7 mph82%30.60 "HgN/A
11:20 am46 °FOvercast.8 mph82%30.60 "HgN/A
10:50 am46 °FOvercast.6 mph87%30.60 "HgN/A
10:20 am46 °FOvercast.7 mph87%30.60 "HgN/A
9:50 am46 °FOvercast.7 mph82%30.60 "HgN/A
9:20 am46 °FOvercast.7 mph82%30.60 "HgN/A
8:50 am45 °FOvercast.6 mph87%30.60 "HgN/A
8:20 am45 °FOvercast.5 mph87%30.60 "HgN/A
7:50 am45 °FOvercast.6 mph87%30.60 "HgN/A
7:20 am45 °FOvercast.5 mph87%30.57 "HgN/A
6:50 am45 °FOvercast.6 mph87%30.57 "HgN/A
6:20 am43 °FOvercast.5 mph93%30.57 "HgN/A
5:50 am45 °FOvercast.6 mph87%30.57 "HgN/A
5:20 am45 °FOvercast.5 mph87%30.60 "HgN/A
4:50 am45 °FOvercast.6 mph87%30.60 "HgN/A
4:20 am45 °FOvercast.5 mph87%30.60 "HgN/A
3:50 am45 °FOvercast.5 mph87%30.60 "HgN/A
3:20 am45 °FOvercast.5 mph87%30.60 "HgN/A
2:50 am45 °FOvercast.5 mph87%30.60 "HgN/A
2:20 am45 °FOvercast.6 mph87%30.60 "HgN/A
1:50 am45 °FOvercast.7 mph87%30.60 "HgN/A
1:20 am45 °FOvercast.7 mph87%30.60 "HgN/A
Weather by CustomWeather, © 2017

See weather overviewHow to use our weather pages